Powrót do katalogu

SL-14 DEB

AktywnyPO
NORAD 45340·DEBRIS·🇷🇺 Russia

Wystrzelony Aug 15, 1991 z Plesetsk Cosmodrome

Loading…

Następne Przeloty (najbliższe 24 godziny)

TLE

ŚwieżeSource: Space-Track

Epoka: Sep 14, 2026, 09:39 UTC

1 45340U 91056CE  26257.40275691  .00006972  00000-0  11198-1 0  9998
2 45340  82.5312  42.4949 0084152 348.9244  11.0040 13.47160662316603

Śledź SL-14 DEB w czasie rzeczywistym z AllMySat

Download on the App Store